FW5903 Weather Reports


time (UTC)temp
F
wind
direction
speed
knots
gust
knots
rain 1hr
in
rain 24hr
in
rain mn
in
humidity
%
barometer
mb
20260906191600 80 131 0.9 0.9 0.00 0.00 0.00 74 1018.0
20260906191059 80 168 0.9 1.7 0.00 0.00 0.00 74 1018.3
20260906190558 80 145 0.0 0.0 0.00 0.00 0.00 74 1018.3
20260906190053 81 137 0.9 0.9 0.00 0.00 0.00 74 1018.3
20260906185552 80 131 0.0 0.0 0.00 0.00 0.00 74 1018.1
20260906185051 80 88 1.7 1.7 0.00 0.00 0.00 73 1018.1
20260906184546 80 126 0.9 1.7 0.00 0.00 0.00 75 1018.3
20260906184042 79 167 0.9 1.7 0.00 0.00 0.00 76 1018.2
20260906183538 79 161 1.7 1.7 0.00 0.00 0.00 77 1018.2
20260906183034 78 182 1.7 1.7 0.00 0.00 0.00 77 1018.3
20260906182528 78 72 0.9 1.7 0.00 0.00 0.00 77 1018.4
20260906182025 79 164 0.9 0.9 0.00 0.00 0.00 77 1018.3
20260906181520 79 229 1.7 2.6 0.00 0.00 0.00 76 1018.4
20260906181016 79 119 2.6 2.6 0.00 0.00 0.00 76 1018.5
20260906180510 79 190 2.6 4.3 0.00 0.00 0.00 76 1018.4
20260906180009 79 146 1.7 1.7 0.00 0.00 0.00 77 1018.3
20260906175508 78 160 0.9 0.9 0.00 0.00 0.00 78 1018.6
20260906175003 78 166 0.9 0.9 0.00 0.00 0.00 79 1018.3
20260906174501 77 175 1.7 1.7 0.00 0.00 0.00 79 1018.5
20260906173956 77 170 0.9 0.9 0.00 0.00 0.00 80 1018.5
20260906173452 77 149 0.0 0.9 0.00 0.00 0.00 81 1018.6
20260906172951 76 146 0.9 0.9 0.00 0.00 0.00 81 1018.7
20260906172447 76 116 0.0 0.9 0.00 0.00 0.00 81 1018.7
20260906171942 76 162 0.9 1.7 0.00 0.00 0.00 82 1018.7
20260906171437 76 164 1.7 2.6 0.00 0.00 0.00 82 1018.7
20260906170933 76 179 0.9 1.7 0.00 0.00 0.00 81 1018.5
20260906170429 76 125 0.0 0.9 0.00 0.00 0.00 81 1018.9
20260906165925 76 190 1.7 2.6 0.00 0.00 0.00 82 1019.1
20260906165425 77 170 0.9 1.7 0.00 0.00 0.00 81 1019.2
20260906164920 77 180 1.7 1.7 0.00 0.00 0.00 81 1019.1
20260906164419 76 178 0.9 1.7 0.00 0.00 0.00 81 1019.2
20260906163915 76 168 0.0 0.9 0.00 0.00 0.00 82 1019.0
20260906163411 76 118 1.7 2.6 0.00 0.00 0.00 83 1019.0
20260906162909 75 170 0.0 0.0 0.00 0.00 0.00 84 1019.1
20260906162407 75 177 0.0 0.9 0.00 0.00 0.00 85 1019.2
20260906161903 74 160 0.9 0.9 0.00 0.00 0.00 85 1019.3
20260906161402 74 162 0.0 0.9 0.00 0.00 0.00 86 1019.3
20260906160901 74 133 0.9 0.9 0.00 0.00 0.00 85 1019.5
20260906160355 74 161 0.9 1.7 0.00 0.00 0.00 85 1019.2
20260906155853 74 153 0.0 0.9 0.00 0.00 0.00 86 1019.3
20260906155347 73 194 1.7 2.6 0.00 0.00 0.00 86 1019.5
20260906154844 73 154 0.9 0.9 0.00 0.00 0.00 86 1019.4
20260906154343 73 166 1.7 1.7 0.00 0.00 0.00 86 1019.3
20260906153842 73 175 2.6 2.6 0.00 0.00 0.00 87 1019.6
20260906153336 73 169 0.9 0.9 0.00 0.00 0.00 86 1019.4
20260906152831 73 177 0.0 0.9 0.00 0.00 0.00 87 1019.6
20260906152326 73 148 2.6 2.6 0.00 0.00 0.00 87 1019.5
20260906151825 73 161 0.9 0.9 0.00 0.00 0.00 87 1019.5
20260906151321 73 153 0.9 1.7 0.00 0.00 0.00 86 1019.6
20260906150817 74 166 1.7 1.7 0.00 0.00 0.00 86 1019.6
20260906150312 73 169 0.0 0.9 0.00 0.00 0.00 87 1019.6
20260906145811 73 149 0.9 0.9 0.00 0.00 0.00 88 1019.5
20260906145309 73 146 0.9 0.9 0.00 0.00 0.00 87 1019.4
20260906144805 73 175 2.6 2.6 0.00 0.00 0.00 87 1019.1
20260906144300 74 182 1.7 2.6 0.00 0.00 0.00 86 1019.3
20260906143759 74 158 1.7 1.7 0.00 0.00 0.00 85 1019.3
20260906143256 74 133 0.9 0.9 0.00 0.00 0.00 86 1019.4
20260906142756 74 160 0.0 0.0 0.00 0.00 0.00 87 1019.2
20260906142252 74 168 0.9 1.7 0.00 0.00 0.00 88 1019.2
20260906141750 73 70 1.7 4.3 0.00 0.00 0.00 88 1019.1
20260906141245 73 155 0.0 0.0 0.00 0.00 0.00 88 1019.3
20260906140744 73 182 3.5 4.3 0.00 0.00 0.00 88 1019.2
20260906140239 73 152 0.9 0.9 0.00 0.00 0.00 89 1018.9
20260906135736 73 143 0.0 0.0 0.00 0.00 0.00 89 1019.1
20260906135232 73 193 1.7 1.7 0.00 0.00 0.00 89 1019.2
20260906134727 73 166 0.0 0.0 0.00 0.00 0.00 89 1019.2
20260906134223 73 160 0.9 0.9 0.00 0.00 0.00 90 1019.0
20260906133718 72 133 0.0 0.0 0.00 0.00 0.00 90 1018.9
20260906133214 72 156 0.0 0.9 0.00 0.00 0.00 91 1019.2
20260906132709 72 165 0.0 0.0 0.00 0.00 0.00 91 1018.7
20260906132204 71 178 0.0 0.9 0.00 0.00 0.00 92 1018.5
20260906131700 71 141 0.0 0.0 0.00 0.00 0.00 93 1018.6
20260906131154 71 147 0.0 0.0 0.00 0.00 0.00 94 1018.6
20260906130649 70 144 0.0 0.0 0.00 0.00 0.00 95 1018.6
20260906130145 70 139 0.0 0.0 0.00 0.00 0.00 96 1018.6
20260906125643 70 156 0.0 0.9 0.00 0.00 0.00 96 1018.7
20260906125142 70 144 0.0 0.0 0.00 0.00 0.00 97 1018.9
20260906124638 69 149 0.0 0.0 0.00 0.00 0.00 97 1018.6
20260906124133 69 165 0.0 0.0 0.00 0.00 0.00 97 1018.7
20260906123632 69 148 0.0 0.0 0.00 0.00 0.00 98 1018.3
20260906123127 69 155 0.0 0.9 0.00 0.00 0.00 98 1018.7
20260906122626 69 138 0.0 0.0 0.00 0.00 0.00 98 1018.6
20260906122122 69 120 0.0 0.0 0.00 0.00 0.00 98 1018.5
20260906121618 69 115 0.0 0.0 0.00 0.00 0.00 98 1018.6
20260906121114 69 140 0.0 0.0 0.00 0.00 0.00 98 1018.5
20260906120609 68 142 0.0 0.0 0.00 0.00 0.00 98 1018.5
20260906120107 68 147 0.0 0.0 0.00 0.00 0.00 98 1018.3
20260906115607 68 145 0.0 0.0 0.00 0.00 0.00 98 1018.2
20260906115102 68 170 0.9 0.9 0.00 0.00 0.00 98 1018.2
20260906114556 68 142 0.0 0.0 0.00 0.00 0.00 98 1018.3
20260906114051 68 146 0.0 0.0 0.00 0.00 0.00 98 1018.5
20260906113550 68 146 0.0 0.0 0.00 0.00 0.00 98 1018.4
20260906113045 68 141 0.0 0.0 0.00 0.00 0.00 97 1018.2
20260906112540 69 143 0.0 0.0 0.00 0.00 0.00 97 1018.1
20260906112036 69 143 0.0 0.0 0.00 0.00 0.00 97 1018.0
20260906111536 69 149 0.0 0.0 0.00 0.00 0.00 97 1018.3
20260906111031 69 143 0.0 0.0 0.00 0.00 0.00 97 1018.2
20260906110526 69 163 0.0 0.0 0.00 0.00 0.00 97 1018.1
20260906110025 69 146 0.0 0.0 0.00 0.00 0.00 97 1018.2
20260906105520 69 148 0.0 0.0 0.00 0.00 0.00 97 1018.1
20260906105016 69 142 0.0 0.0 0.00 0.00 0.00 96 1018.0
20260906104514 69 142 0.0 0.0 0.00 0.00 0.00 96 1018.2
20260906104009 69 143 0.0 0.0 0.00 0.00 0.00 96 1018.0
20260906103508 69 134 0.0 0.0 0.00 0.00 0.00 96 1018.2
20260906103003 69 140 0.0 0.0 0.00 0.00 0.00 96 1018.3
20260906102502 69 146 0.0 0.0 0.00 0.00 0.00 96 1018.0
20260906102002 69 142 0.0 0.0 0.00 0.00 0.00 95 1018.2
20260906101457 69 142 0.0 0.0 0.00 0.00 0.00 95 1018.1
20260906100952 69 140 0.0 0.0 0.00 0.00 0.00 95 1017.9
20260906100448 70 146 0.0 0.0 0.00 0.00 0.00 95 1018.0
20260906095942 70 138 0.0 0.0 0.00 0.00 0.00 94 1018.0
20260906095438 70 147 0.0 0.0 0.00 0.00 0.00 94 1017.9
20260906094932 70 137 0.0 0.0 0.00 0.00 0.00 94 1017.7
20260906094426 70 152 0.0 0.0 0.00 0.00 0.00 94 1017.5
20260906093922 71 147 0.0 0.0 0.00 0.00 0.00 93 1017.4
20260906093419 71 144 0.0 0.0 0.00 0.00 0.00 93 1017.4
20260906092918 71 145 0.0 0.0 0.00 0.00 0.00 93 1017.2
20260906092412 71 146 0.0 0.0 0.00 0.00 0.00 93 1017.4
20260906091908 71 156 0.0 0.0 0.00 0.00 0.00 93 1017.4
20260906091404 71 166 0.9 0.9 0.00 0.00 0.00 93 1017.2
20260906090900 71 146 0.0 0.9 0.00 0.00 0.00 93 1017.3
20260906090400 71 150 0.0 0.0 0.00 0.00 0.00 93 1017.3
20260906085854 71 166 0.0 0.9 0.00 0.00 0.00 93 1017.5
20260906085354 71 138 0.0 0.0 0.00 0.00 0.00 93 1017.5
20260906084848 71 146 0.0 0.0 0.00 0.00 0.00 93 1017.6
20260906084348 71 149 0.0 0.0 0.00 0.00 0.00 93 1017.6
20260906083837 71 155 0.0 0.0 0.00 0.00 0.00 93 1017.4
20260906083333 71 154 0.0 0.0 0.00 0.00 0.00 92 1017.2
20260906082832 71 140 0.0 0.0 0.00 0.00 0.00 92 1017.5
20260906082327 71 147 0.0 0.0 0.00 0.00 0.00 92 1017.3
20260906081823 71 144 0.0 0.0 0.00 0.00 0.00 92 1017.1
20260906081319 71 155 0.0 0.9 0.00 0.00 0.00 92 1017.4
20260906080815 72 131 0.0 0.0 0.00 0.00 0.00 92 1017.2
20260906080311 71 60 0.9 1.7 0.00 0.00 0.00 92 1017.2
20260906075810 71 143 0.0 0.0 0.00 0.00 0.00 92 1017.0
20260906075310 71 135 0.0 0.0 0.00 0.00 0.00 92 1017.2
20260906074806 72 125 0.0 0.0 0.00 0.00 0.00 92 1017.4
20260906074305 72 134 0.0 0.0 0.00 0.00 0.00 92 1017.3
20260906073804 72 114 0.0 0.0 0.00 0.00 0.00 92 1017.2
20260906073259 72 138 0.0 0.0 0.00 0.00 0.00 91 1017.3
20260906072755 72 148 0.0 0.0 0.00 0.00 0.00 91 1017.3
20260906072250 72 146 0.0 0.0 0.00 0.00 0.00 91 1017.5
20260906071746 73 143 0.0 0.0 0.00 0.00 0.00 91 1017.4
20260906071246 73 149 0.0 0.0 0.00 0.00 0.00 90 1017.5
20260906070743 73 141 0.0 0.0 0.00 0.00 0.00 90 1017.4
20260906070238 73 150 0.0 0.0 0.00 0.00 0.00 90 1017.5
20260906065738 73 158 0.9 0.9 0.00 0.00 0.00 90 1017.6
20260906065233 73 137 0.0 0.0 0.00 0.00 0.00 90 1017.7
20260906064729 73 149 0.0 0.0 0.00 0.00 0.00 90 1017.7
20260906064224 73 158 0.0 0.0 0.00 0.00 0.00 90 1017.8
20260906063719 73 151 0.0 0.0 0.00 0.00 0.00 90 1017.5
20260906063215 73 143 0.0 0.0 0.00 0.00 0.00 90 1017.6
20260906062710 73 156 0.0 0.0 0.00 0.00 0.00 90 1017.6
20260906062209 73 147 0.9 0.9 0.00 0.00 0.00 90 1017.7
20260906061705 73 146 0.0 0.0 0.00 0.00 0.00 90 1017.7
20260906061201 73 133 0.0 0.0 0.00 0.00 0.00 90 1017.8
20260906060657 73 140 0.0 0.0 0.00 0.00 0.00 91 1017.6
20260906060154 73 139 0.0 0.0 0.00 0.00 0.00 91 1017.7
20260906055649 73 141 0.0 0.0 0.00 0.00 0.00 91 1017.7
20260906055144 73 138 0.0 0.0 0.00 0.00 0.00 92 1017.5
20260906054640 73 143 0.0 0.0 0.00 0.00 0.00 92 1017.5
20260906054134 72 143 0.0 0.0 0.00 0.00 0.00 92 1017.6
20260906053631 72 144 0.0 0.0 0.00 0.00 0.00 92 1017.6
20260906053126 72 152 0.0 0.0 0.00 0.00 0.00 92 1017.4
20260906052621 72 152 0.0 0.0 0.00 0.00 0.00 92 1017.5
20260906052118 72 146 0.0 0.0 0.00 0.00 0.00 92 1017.6
20260906051614 72 144 0.0 0.0 0.00 0.00 0.00 92 1017.8
20260906051109 73 149 0.0 0.0 0.00 0.00 0.00 92 1017.7
20260906050604 73 151 0.0 0.0 0.00 0.00 0.00 92 1017.6
20260906050059 72 145 0.0 0.0 0.00 0.00 0.00 92 1017.6
20260906045557 72 143 0.0 0.0 0.00 0.00 0.00 92 1017.9
20260906045053 72 147 0.0 0.0 0.00 0.00 0.00 92 1017.8
20260906044549 72 139 0.0 0.0 0.00 0.00 0.00 92 1017.7
20260906044044 72 133 0.0 0.0 0.00 0.00 0.00 92 1017.7
20260906043539 72 145 0.0 0.0 0.00 0.00 0.00 92 1017.8
20260906043036 72 145 0.0 0.0 0.00 0.00 0.00 91 1017.9
20260906042534 72 144 0.0 0.0 0.00 0.00 0.00 91 1017.9
20260906042029 72 145 0.0 0.0 0.00 0.00 0.00 91 1018.1
20260906041525 72 144 0.0 0.0 0.00 0.00 0.00 91 1017.9
20260906041025 73 144 0.0 0.0 0.00 0.00 0.00 90 1017.9
20260906040520 73 144 0.0 0.0 0.00 0.00 0.00 90 1017.9
20260906040016 73 144 0.0 0.0 0.00 0.00 0.00 90 1017.9
20260906035510 73 148 0.0 0.0 0.00 0.00 0.00 90 1017.9
20260906035001 73 149 0.0 0.0 0.00 0.00 0.00 89 1017.9
20260906034500 73 146 0.0 0.0 0.00 0.00 0.00 89 1018.0
20260906033955 73 146 0.0 0.0 0.00 0.00 0.00 88 1017.8
20260906033450 73 144 0.0 0.0 0.00 0.00 0.00 87 1018.0
20260906032946 74 143 0.0 0.0 0.00 0.00 0.00 87 1017.9
20260906032443 74 143 0.0 0.0 0.00 0.00 0.00 87 1018.1
20260906031943 75 146 0.0 0.0 0.00 0.00 0.00 86 1018.1
20260906031438 75 139 0.0 0.0 0.00 0.00 0.00 85 1018.1
20260906030933 75 143 0.0 0.0 0.00 0.00 0.00 85 1018.0
20260906030428 75 134 0.0 0.0 0.00 0.00 0.00 85 1018.0
20260906025922 76 145 0.0 0.0 0.00 0.00 0.00 84 1018.1
20260906025417 76 148 0.0 0.0 0.00 0.00 0.00 84 1017.9
20260906024915 76 149 0.0 0.0 0.00 0.00 0.00 84 1018.1
20260906024415 76 145 0.0 0.0 0.00 0.00 0.00 83 1018.2
20260906023910 76 152 0.0 0.0 0.00 0.00 0.00 83 1018.2
20260906023407 77 143 0.0 0.0 0.00 0.00 0.00 83 1018.2
20260906022906 77 163 0.0 0.9 0.00 0.00 0.00 83 1018.1
20260906022401 77 162 0.0 0.9 0.00 0.00 0.00 82 1018.0
20260906021857 77 151 0.0 0.9 0.00 0.00 0.00 81 1017.7
20260906021356 77 146 0.0 0.0 0.00 0.00 0.00 81 1017.5
20260906020851 77 162 0.0 0.9 0.00 0.00 0.00 80 1017.4
20260906020351 77 143 0.0 0.9 0.00 0.00 0.00 80 1017.3
20260906015846 77 171 0.9 0.9 0.00 0.00 0.00 80 1017.5
20260906015344 77 159 0.0 0.9 0.00 0.00 0.00 80 1017.1
20260906014839 77 174 0.9 1.7 0.00 0.00 0.00 81 1017.0
20260906014333 78 147 0.0 0.0 0.00 0.00 0.00 81 1016.8
20260906013830 78 204 1.7 1.7 0.00 0.00 0.00 80 1016.6
20260906013325 78 165 0.0 0.0 0.00 0.00 0.00 80 1016.2
20260906012820 78 142 0.0 0.9 0.00 0.00 0.00 79 1016.2
20260906012315 79 165 0.0 0.9 0.00 0.00 0.00 79 1016.2
20260906011810 79 162 0.9 0.9 0.00 0.00 0.00 78 1016.2
20260906011310 79 149 0.9 0.9 0.00 0.00 0.00 76 1015.9
20260906010806 79 172 0.9 0.9 0.00 0.00 0.00 75 1015.7
20260906010302 79 134 0.9 0.9 0.00 0.00 0.00 74 1015.8
20260906005756 79 151 0.0 0.9 0.00 0.00 0.00 74 1015.5
20260906005255 79 123 0.0 0.0 0.00 0.00 0.00 73 1015.8
20260906004754 80 156 0.9 0.9 0.00 0.00 0.00 73 1015.8
20260906004249 79 151 0.0 0.9 0.00 0.00 0.00 72 1015.8
20260906003744 80 150 0.0 0.0 0.00 0.00 0.00 72 1015.5
20260906003240 80 148 0.0 0.0 0.00 0.00 0.00 71 1015.4
20260906002735 80 144 0.0 0.0 0.00 0.00 0.00 70 1015.1
20260906002234 81 148 0.0 0.0 0.00 0.00 0.00 69 1015.2
20260906001730 81 142 0.0 0.0 0.00 0.00 0.00 68 1015.2
20260906001225 82 142 0.0 0.0 0.00 0.00 0.00 68 1015.2
20260906000721 82 143 0.0 0.0 0.00 0.00 0.00 68 1015.2
20260906000215 82 126 0.0 0.9 0.00 0.00 0.00 67 1015.5
20260905235715 82 155 0.0 0.0 0.00 0.00 0.00 67 1015.4
20260905235210 83 152 0.0 0.0 0.00 0.00 0.00 66 1015.3
20260905234705 83 150 0.0 0.9 0.00 0.00 0.00 65 1015.4
20260905234201 83 141 0.9 0.9 0.00 0.00 0.00 65 1015.5
20260905233656 83 154 0.0 0.0 0.00 0.00 0.00 66 1015.3
20260905233155 83 91 2.6 2.6 0.00 0.00 0.00 66 1015.3
20260905232650 83 142 0.0 0.0 0.00 0.00 0.00 67 1015.1
20260905232146 84 105 1.7 1.7 0.00 0.00 0.00 66 1014.8
20260905231641 84 125 0.0 0.9 0.00 0.00 0.00 65 1014.8
20260905231137 84 138 0.0 0.0 0.00 0.00 0.00 65 1015.3
20260905230633 84 58 4.3 5.2 0.00 0.00 0.00 64 1015.1
20260905230131 84 109 1.7 1.7 0.00 0.00 0.00 65 1014.8
20260905225624 84 21 4.3 7.8 0.00 0.00 0.00 66 1014.5
20260905225120 84 122 1.7 1.7 0.00 0.00 0.00 66 1014.5
20260905224619 84 65 2.6 2.6 0.00 0.00 0.00 64 1014.7
20260905224119 84 46 5.2 6.1 0.00 0.00 0.00 65 1014.5
20260905223616 84 157 0.9 1.7 0.00 0.00 0.00 65 1014.6
20260905223113 84 45 2.6 4.3 0.00 0.00 0.00 64 1014.8
20260905222612 84 86 3.5 5.2 0.00 0.00 0.00 64 1014.9
20260905222108 85 105 3.5 6.1 0.00 0.00 0.00 64 1014.6
20260905221604 85 81 3.5 5.2 0.00 0.00 0.00 64 1014.8
20260905221100 85 44 4.3 6.1 0.00 0.00 0.00 64 1014.8
20260905220555 86 158 0.9 0.9 0.00 0.00 0.00 64 1015.1
20260905220051 85 107 0.0 0.0 0.00 0.00 0.00 63 1015.1
20260905215550 85 179 0.9 0.9 0.00 0.00 0.00 64 1015.4
20260905215046 85 68 3.5 6.1 0.00 0.00 0.00 63 1014.8
20260905214542 85 56 2.6 4.3 0.00 0.00 0.00 63 1015.3
20260905214037 85 66 1.7 2.6 0.00 0.00 0.00 64 1015.3
20260905213532 85 22 3.5 5.2 0.00 0.00 0.00 64 1015.2
20260905213028 85 80 0.9 2.6 0.00 0.00 0.00 64 1015.3
20260905212522 85 115 0.9 0.9 0.00 0.00 0.00 65 1015.2
20260905212022 84 151 0.9 1.7 0.00 0.00 0.00 66 1014.9
20260905211517 84 84 0.9 1.7 0.00 0.00 0.00 66 1015.2
20260905211013 84 101 3.5 7.0 0.00 0.00 0.00 66 1014.9
20260905210509 84 64 1.7 2.6 0.00 0.00 0.00 67 1014.8
20260905210008 84 119 2.6 2.6 0.00 0.00 0.00 67 1015.1
20260905205503 85 338 2.6 4.3 0.00 0.00 0.00 67 1015.3
20260905205001 84 119 2.6 4.3 0.00 0.00 0.00 67 1015.5
20260905204457 85 79 2.6 5.2 0.00 0.00 0.00 65 1015.7
20260905203956 85 123 0.9 0.9 0.00 0.00 0.00 66 1015.8
20260905203452 85 123 0.9 1.7 0.00 0.00 0.00 66 1016.0
20260905202947 84 115 0.9 0.9 0.00 0.00 0.00 68 1016.1
20260905202442 84 40 0.9 1.7 0.00 0.00 0.00 68 1016.3
20260905201938 83 88 0.9 1.7 0.00 0.00 0.00 69 1016.1
20260905201433 82 93 3.5 4.3 0.00 0.00 0.00 68 1016.3
20260905200933 82 96 4.3 5.2 0.00 0.00 0.00 67 1016.4
20260905200429 83 51 1.7 2.6 0.00 0.00 0.00 68 1016.5
20260905195927 83 123 1.7 1.7 0.00 0.00 0.00 69 1016.5
20260905195422 84 42 0.9 0.9 0.00 0.00 0.00 68 1016.9
20260905194918 85 172 1.7 1.7 0.00 0.00 0.00 67 1016.7
20260905194417 83 155 0.0 0.0 0.00 0.00 0.00 69 1016.9
20260905193917 82 174 0.9 0.9 0.00 0.00 0.00 69 1016.8
20260905193412 82 54 1.7 1.7 0.00 0.00 0.00 71 1016.9
20260905192907 83 51 2.6 4.3 0.00 0.00 0.00 69 1017.0
20260905192403 83 146 0.0 0.9 0.00 0.00 0.00 70 1017.1
20260905191857 84 185 1.7 1.7 0.00 0.00 0.00 68 1016.9